date,time,SUV Intensity [MED/Hr],UV Index,Daily total [MED],Since Last [MED]
01/01/2022,00:03:05,0.000,0.0,0.0,0.0
01/01/2022,00:03:57,0.000,0.0,0.0,0.0
01/01/2022,00:04:58,0.000,0.0,0.0,0.0
01/01/2022,00:05:57,0.001,0.0,0.0,0.0
01/01/2022,00:06:57,-0.000,0.0,0.0,0.0
01/01/2022,00:07:57,-0.000,0.0,0.0,0.0
01/01/2022,00:08:57,0.000,0.0,0.0,0.0
01/01/2022,00:09:58,-0.000,0.0,0.0,0.0
01/01/2022,00:10:57,0.001,0.0,0.0,0.0
01/01/2022,00:11:57,0.001,0.0,0.0,0.0
01/01/2022,00:12:58,-0.000,0.0,0.0,0.0
01/01/2022,00:13:57,-0.001,0.0,0.0,0.0
01/01/2022,00:14:58,-0.000,0.0,0.0,0.0
01/01/2022,00:15:58,-0.000,0.0,0.0,0.0
01/01/2022,00:16:57,-0.000,0.0,0.0,0.0
01/01/2022,00:18:05,0.000,0.0,0.0,0.0
01/01/2022,00:18:57,0.000,0.0,0.0,0.0
01/01/2022,00:19:58,-0.000,0.0,0.0,0.0
01/01/2022,00:21:07,0.001,0.0,0.0,0.0
01/01/2022,00:21:55,-0.001,0.0,0.0,0.0
01/01/2022,00:22:57,-0.001,0.0,0.0,0.0
01/01/2022,00:23:57,-0.000,0.0,0.0,0.0
01/01/2022,00:24:57,-0.000,0.0,0.0,0.0
01/01/2022,00:25:58,0.000,0.0,0.0,0.0
01/01/2022,00:27:05,0.000,0.0,0.0,0.0
01/01/2022,00:27:45,-0.001,0.0,0.0,0.0
01/01/2022,00:28:59,0.000,0.0,0.0,0.0
01/01/2022,00:29:58,0.000,0.0,0.0,0.0
01/01/2022,00:30:57,-0.000,0.0,0.0,0.0
01/01/2022,00:31:57,-0.001,0.0,0.0,0.0
01/01/2022,00:32:57,0.000,0.0,0.0,0.0
01/01/2022,00:33:58,-0.000,0.0,0.0,0.0
01/01/2022,00:34:57,-0.000,0.0,0.0,0.0
01/01/2022,00:35:58,-0.001,0.0,0.0,0.0
01/01/2022,00:37:06,-0.001,0.0,0.0,0.0
01/01/2022,00:37:56,-0.001,0.0,0.0,0.0
01/01/2022,00:38:58,-0.000,0.0,0.0,0.0
01/01/2022,00:39:57,-0.001,0.0,0.0,0.0
01/01/2022,00:40:57,-0.001,0.0,0.0,0.0
01/01/2022,00:41:58,-0.000,0.0,0.0,0.0
01/01/2022,00:42:58,-0.000,0.0,0.0,0.0
01/01/2022,00:43:57,-0.001,0.0,0.0,0.0
01/01/2022,00:44:57,-0.001,0.0,0.0,0.0
01/01/2022,00:45:57,-0.001,0.0,0.0,0.0
01/01/2022,00:46:58,0.001,0.0,0.0,0.0
01/01/2022,00:47:58,-0.000,0.0,0.0,0.0
01/01/2022,00:48:57,0.001,0.0,0.0,0.0
01/01/2022,00:49:57,-0.000,0.0,0.0,0.0
01/01/2022,00:50:57,0.000,0.0,0.0,0.0
01/01/2022,00:52:06,-0.001,0.0,0.0,0.0
01/01/2022,00:52:56,-0.000,0.0,0.0,0.0
01/01/2022,00:53:58,-0.002,0.0,0.0,0.0
01/01/2022,00:55:06,-0.000,0.0,0.0,0.0
01/01/2022,00:55:56,-0.000,0.0,0.0,0.0
01/01/2022,00:56:57,-0.000,0.0,0.0,0.0
01/01/2022,00:57:57,-0.000,0.0,0.0,0.0
01/01/2022,00:58:57,-0.001,0.0,0.0,0.0
01/01/2022,00:59:58,-0.001,0.0,0.0,0.0
01/01/2022,01:00:57,0.000,0.0,0.0,0.0
01/01/2022,01:01:58,-0.000,0.0,0.0,0.0
01/01/2022,01:02:57,0.000,0.0,0.0,0.0
01/01/2022,01:03:57,-0.000,0.0,0.0,0.0
01/01/2022,01:04:58,0.000,0.0,0.0,0.0
01/01/2022,01:05:57,-0.000,0.0,0.0,0.0
01/01/2022,01:06:58,0.000,0.0,0.0,0.0
01/01/2022,01:07:58,-0.000,0.0,0.0,0.0
01/01/2022,01:08:57,0.000,0.0,0.0,0.0
01/01/2022,01:09:58,0.001,0.0,0.0,0.0
01/01/2022,01:10:58,-0.000,0.0,0.0,0.0
01/01/2022,01:11:57,-0.001,0.0,0.0,0.0
01/01/2022,01:12:57,-0.001,0.0,0.0,0.0
01/01/2022,01:13:57,-0.001,0.0,0.0,0.0
01/01/2022,01:14:57,-0.001,0.0,0.0,0.0
01/01/2022,01:15:58,0.001,0.0,0.0,0.0
01/01/2022,01:16:57,0.000,0.0,0.0,0.0
01/01/2022,01:17:58,-0.001,0.0,0.0,0.0
01/01/2022,01:18:57,-0.000,0.0,0.0,0.0
01/01/2022,01:19:57,-0.000,0.0,0.0,0.0
01/01/2022,01:20:57,-0.000,0.0,0.0,0.0
01/01/2022,01:21:58,-0.000,0.0,0.0,0.0
01/01/2022,01:23:07,0.000,0.0,0.0,0.0
01/01/2022,01:23:57,0.000,0.0,0.0,0.0
01/01/2022,01:24:57,-0.001,0.0,0.0,0.0
01/01/2022,01:25:58,-0.001,0.0,0.0,0.0
01/01/2022,01:26:58,0.000,0.0,0.0,0.0
01/01/2022,01:27:57,-0.000,0.0,0.0,0.0
01/01/2022,01:28:58,0.000,0.0,0.0,0.0
01/01/2022,01:29:58,-0.001,0.0,0.0,0.0
01/01/2022,01:30:57,-0.000,0.0,0.0,0.0
01/01/2022,01:31:57,-0.000,0.0,0.0,0.0
01/01/2022,01:32:58,-0.001,0.0,0.0,0.0
01/01/2022,01:33:57,-0.001,0.0,0.0,0.0
01/01/2022,01:34:58,0.000,0.0,0.0,0.0
01/01/2022,01:35:58,-0.000,0.0,0.0,0.0
01/01/2022,01:36:57,-0.000,0.0,0.0,0.0
01/01/2022,01:38:06,-0.000,0.0,0.0,0.0
01/01/2022,01:39:58,-0.000,0.0,0.0,0.0
01/01/2022,01:40:58,-0.001,0.0,0.0,0.0
01/01/2022,01:41:58,-0.001,0.0,0.0,0.0
01/01/2022,01:42:58,-0.001,0.0,0.0,0.0
01/01/2022,01:43:57,-0.000,0.0,0.0,0.0
01/01/2022,01:44:58,0.001,0.0,0.0,0.0
01/01/2022,01:45:57,0.000,0.0,0.0,0.0
01/01/2022,01:46:58,-0.000,0.0,0.0,0.0
01/01/2022,01:47:57,-0.001,0.0,0.0,0.0
01/01/2022,01:48:58,-0.000,0.0,0.0,0.0
01/01/2022,01:49:57,-0.000,0.0,0.0,0.0
01/01/2022,01:51:06,0.000,0.0,0.0,0.0
01/01/2022,01:51:56,0.001,0.0,0.0,0.0
01/01/2022,01:52:57,-0.000,0.0,0.0,0.0
01/01/2022,01:53:58,-0.000,0.0,0.0,0.0
01/01/2022,01:54:58,0.000,0.0,0.0,0.0
01/01/2022,01:55:58,0.000,0.0,0.0,0.0
01/01/2022,01:56:57,-0.000,0.0,0.0,0.0
01/01/2022,01:57:57,-0.001,0.0,0.0,0.0
01/01/2022,01:58:57,0.000,0.0,0.0,0.0
01/01/2022,01:59:57,0.000,0.0,0.0,0.0
01/01/2022,02:00:58,0.001,0.0,0.0,0.0
01/01/2022,02:01:58,0.001,0.0,0.0,0.0
01/01/2022,02:02:58,0.000,0.0,0.0,0.0
01/01/2022,02:03:58,0.000,0.0,0.0,0.0
01/01/2022,02:04:57,-0.000,0.0,0.0,0.0
01/01/2022,02:05:57,0.001,0.0,0.0,0.0
01/01/2022,02:07:05,0.000,0.0,0.0,0.0
01/01/2022,02:07:57,-0.000,0.0,0.0,0.0
01/01/2022,02:09:06,-0.000,0.0,0.0,0.0
01/01/2022,02:09:58,-0.000,0.0,0.0,0.0
01/01/2022,02:10:58,-0.000,0.0,0.0,0.0
01/01/2022,02:11:57,0.001,0.0,0.0,0.0
01/01/2022,02:12:57,0.001,0.0,0.0,0.0
01/01/2022,02:13:57,0.000,0.0,0.0,0.0
01/01/2022,02:14:57,0.000,0.0,0.0,0.0
01/01/2022,02:15:57,-0.001,0.0,0.0,0.0
01/01/2022,02:16:57,0.001,0.0,0.0,0.0
01/01/2022,02:17:57,0.001,0.0,0.0,0.0
01/01/2022,02:18:57,0.001,0.0,0.0,0.0
01/01/2022,02:19:57,-0.001,0.0,0.0,0.0
01/01/2022,02:20:58,-0.000,0.0,0.0,0.0
01/01/2022,02:21:58,-0.000,0.0,0.0,0.0
01/01/2022,02:22:57,0.000,0.0,0.0,0.0
01/01/2022,02:23:58,-0.000,0.0,0.0,0.0
01/01/2022,02:24:58,0.000,0.0,0.0,0.0
01/01/2022,02:25:58,-0.001,0.0,0.0,0.0
01/01/2022,02:26:58,-0.000,0.0,0.0,0.0
01/01/2022,02:27:57,0.000,0.0,0.0,0.0
01/01/2022,02:28:58,0.000,0.0,0.0,0.0
01/01/2022,02:29:57,0.000,0.0,0.0,0.0
01/01/2022,02:31:06,0.001,0.0,0.0,0.0
01/01/2022,02:31:58,-0.000,0.0,0.0,0.0
01/01/2022,02:32:57,-0.000,0.0,0.0,0.0
01/01/2022,02:34:05,-0.001,0.0,0.0,0.0
01/01/2022,02:34:58,-0.001,0.0,0.0,0.0
01/01/2022,02:35:58,-0.000,0.0,0.0,0.0
01/01/2022,02:36:57,0.001,0.0,0.0,0.0
01/01/2022,02:37:57,-0.001,0.0,0.0,0.0
01/01/2022,02:38:57,-0.001,0.0,0.0,0.0
01/01/2022,02:39:58,-0.001,0.0,0.0,0.0
01/01/2022,02:40:57,0.000,0.0,0.0,0.0
01/01/2022,02:41:58,0.000,0.0,0.0,0.0
01/01/2022,02:42:58,-0.000,0.0,0.0,0.0
01/01/2022,02:43:57,0.000,0.0,0.0,0.0
01/01/2022,02:44:58,-0.000,0.0,0.0,0.0
01/01/2022,02:45:58,-0.000,0.0,0.0,0.0
01/01/2022,02:47:05,-0.001,0.0,0.0,0.0
01/01/2022,02:47:57,-0.000,0.0,0.0,0.0
01/01/2022,02:48:58,0.000,0.0,0.0,0.0
01/01/2022,02:50:05,-0.001,0.0,0.0,0.0
01/01/2022,02:50:57,0.000,0.0,0.0,0.0
01/01/2022,02:51:58,-0.001,0.0,0.0,0.0
01/01/2022,02:52:59,0.000,0.0,0.0,0.0
01/01/2022,02:53:57,0.000,0.0,0.0,0.0
01/01/2022,02:54:58,-0.001,0.0,0.0,0.0
01/01/2022,02:55:58,-0.000,0.0,0.0,0.0
01/01/2022,02:56:58,0.000,0.0,0.0,0.0
01/01/2022,02:57:58,-0.000,0.0,0.0,0.0
01/01/2022,02:58:58,0.000,0.0,0.0,0.0
01/01/2022,02:59:58,-0.000,0.0,0.0,0.0
01/01/2022,03:00:58,-0.001,0.0,0.0,0.0
01/01/2022,03:01:58,-0.000,0.0,0.0,0.0
01/01/2022,03:02:57,-0.001,0.0,0.0,0.0
01/01/2022,03:03:58,-0.000,0.0,0.0,0.0
01/01/2022,03:04:58,-0.000,0.0,0.0,0.0
01/01/2022,03:05:57,0.000,0.0,0.0,0.0
01/01/2022,03:06:58,-0.001,0.0,0.0,0.0
01/01/2022,03:07:58,-0.001,0.0,0.0,0.0
01/01/2022,03:08:58,-0.001,0.0,0.0,0.0
01/01/2022,03:09:58,-0.000,0.0,0.0,0.0
01/01/2022,03:10:57,-0.000,0.0,0.0,0.0
01/01/2022,03:11:57,-0.000,0.0,0.0,0.0
01/01/2022,03:12:59,0.000,0.0,0.0,0.0
01/01/2022,03:13:57,-0.000,0.0,0.0,0.0
01/01/2022,03:14:57,-0.000,0.0,0.0,0.0
01/01/2022,03:15:58,-0.000,0.0,0.0,0.0
01/01/2022,03:16:57,0.001,0.0,0.0,0.0
01/01/2022,03:17:58,-0.000,0.0,0.0,0.0
01/01/2022,03:18:58,-0.000,0.0,0.0,0.0
01/01/2022,03:19:58,0.000,0.0,0.0,0.0
01/01/2022,03:20:57,0.001,0.0,0.0,0.0
01/01/2022,03:21:58,0.000,0.0,0.0,0.0
01/01/2022,03:22:58,-0.000,0.0,0.0,0.0
01/01/2022,03:23:58,-0.000,0.0,0.0,0.0
01/01/2022,03:24:58,-0.000,0.0,0.0,0.0
01/01/2022,03:25:58,0.000,0.0,0.0,0.0
01/01/2022,03:27:07,0.000,0.0,0.0,0.0
01/01/2022,03:27:56,-0.000,0.0,0.0,0.0
01/01/2022,03:28:58,0.001,0.0,0.0,0.0
01/01/2022,03:30:06,0.000,0.0,0.0,0.0
01/01/2022,03:30:56,0.001,0.0,0.0,0.0
01/01/2022,03:31:58,-0.000,0.0,0.0,0.0
01/01/2022,03:32:57,-0.000,0.0,0.0,0.0
01/01/2022,03:33:58,-0.000,0.0,0.0,0.0
01/01/2022,03:34:58,-0.000,0.0,0.0,0.0
01/01/2022,03:35:58,-0.000,0.0,0.0,0.0
01/01/2022,03:36:57,-0.000,0.0,0.0,0.0
01/01/2022,03:38:59,0.000,0.0,0.0,0.0
01/01/2022,03:39:59,-0.001,0.0,0.0,0.0
01/01/2022,03:40:58,-0.001,0.0,0.0,0.0
01/01/2022,03:41:58,0.000,0.0,0.0,0.0
01/01/2022,03:43:06,-0.000,0.0,0.0,0.0
01/01/2022,03:43:58,0.001,0.0,0.0,0.0
01/01/2022,03:44:58,0.001,0.0,0.0,0.0
01/01/2022,03:46:07,-0.000,0.0,0.0,0.0
01/01/2022,03:46:56,-0.000,0.0,0.0,0.0
01/01/2022,03:47:57,-0.001,0.0,0.0,0.0
01/01/2022,03:48:57,-0.000,0.0,0.0,0.0
01/01/2022,03:49:57,0.000,0.0,0.0,0.0
01/01/2022,03:50:57,-0.000,0.0,0.0,0.0
01/01/2022,03:51:58,-0.000,0.0,0.0,0.0
01/01/2022,03:52:59,-0.001,0.0,0.0,0.0
01/01/2022,03:53:57,0.000,0.0,0.0,0.0
01/01/2022,04:03:13,0.001,0.0,0.0,0.0
01/01/2022,04:03:57,0.000,0.0,0.0,0.0
01/01/2022,04:05:06,-0.000,0.0,0.0,0.0
01/01/2022,04:05:56,-0.000,0.0,0.0,0.0
01/01/2022,04:07:06,-0.000,0.0,0.0,0.0
01/01/2022,04:07:58,-0.000,0.0,0.0,0.0
01/01/2022,04:08:57,-0.000,0.0,0.0,0.0
01/01/2022,04:10:06,0.001,0.0,0.0,0.0
01/01/2022,04:10:58,0.000,0.0,0.0,0.0
01/01/2022,04:11:58,0.001,0.0,0.0,0.0
01/01/2022,04:12:58,0.000,0.0,0.0,0.0
01/01/2022,04:13:57,-0.000,0.0,0.0,0.0
01/01/2022,04:14:57,0.001,0.0,0.0,0.0
01/01/2022,04:15:58,-0.000,0.0,0.0,0.0
01/01/2022,04:16:58,0.000,0.0,0.0,0.0
01/01/2022,04:17:58,-0.000,0.0,0.0,0.0
01/01/2022,04:18:57,0.001,0.0,0.0,0.0
01/01/2022,04:19:58,0.000,0.0,0.0,0.0
01/01/2022,04:20:58,0.000,0.0,0.0,0.0
01/01/2022,04:21:58,0.001,0.0,0.0,0.0
01/01/2022,04:22:57,0.001,0.0,0.0,0.0
01/01/2022,04:23:58,0.000,0.0,0.0,0.0
01/01/2022,04:24:57,-0.001,0.0,0.0,0.0
01/01/2022,04:25:58,0.000,0.0,0.0,0.0
01/01/2022,04:26:58,-0.000,0.0,0.0,0.0
01/01/2022,04:27:57,-0.001,0.0,0.0,0.0
01/01/2022,04:28:58,-0.000,0.0,0.0,0.0
01/01/2022,04:29:58,0.000,0.0,0.0,0.0
01/01/2022,04:30:58,0.001,0.0,0.0,0.0
01/01/2022,04:32:06,0.000,0.0,0.0,0.0
01/01/2022,04:32:58,-0.000,0.0,0.0,0.0
01/01/2022,04:33:57,0.000,0.0,0.0,0.0
01/01/2022,04:35:06,0.001,0.0,0.0,0.0
01/01/2022,04:35:57,0.000,0.0,0.0,0.0
01/01/2022,04:36:58,0.000,0.0,0.0,0.0
01/01/2022,04:37:58,0.000,0.0,0.0,0.0
01/01/2022,04:38:58,-0.000,0.0,0.0,0.0
01/01/2022,04:39:58,0.000,0.0,0.0,0.0
01/01/2022,04:40:57,-0.000,0.0,0.0,0.0
01/01/2022,04:41:58,0.000,0.0,0.0,0.0
01/01/2022,04:42:58,-0.000,0.0,0.0,0.0
01/01/2022,04:43:58,-0.000,0.0,0.0,0.0
01/01/2022,04:44:57,-0.001,0.0,0.0,0.0
01/01/2022,04:45:57,0.000,0.0,0.0,0.0
01/01/2022,04:46:58,0.001,0.0,0.0,0.0
01/01/2022,04:47:58,0.000,0.0,0.0,0.0
01/01/2022,04:48:59,0.000,0.0,0.0,0.0
01/01/2022,04:49:57,-0.000,0.0,0.0,0.0
01/01/2022,04:50:58,0.000,0.0,0.0,0.0
01/01/2022,04:51:57,0.000,0.0,0.0,0.0
01/01/2022,04:52:58,-0.000,0.0,0.0,0.0
01/01/2022,04:54:06,0.000,0.0,0.0,0.0
01/01/2022,04:54:58,-0.001,0.0,0.0,0.0
01/01/2022,04:55:57,0.000,0.0,0.0,0.0
01/01/2022,04:57:06,-0.001,0.0,0.0,0.0
01/01/2022,04:57:56,0.000,0.0,0.0,0.0
01/01/2022,04:58:58,0.001,0.0,0.0,0.0
01/01/2022,04:59:59,-0.000,0.0,0.0,0.0
01/01/2022,05:00:57,-0.000,0.0,0.0,0.0
01/01/2022,05:01:58,-0.000,0.0,0.0,0.0
01/01/2022,05:02:58,-0.000,0.0,0.0,0.0
01/01/2022,05:03:57,-0.000,0.0,0.0,0.0
01/01/2022,05:04:58,-0.001,0.0,0.0,0.0
01/01/2022,05:05:58,0.000,0.0,0.0,0.0
01/01/2022,05:06:58,-0.000,0.0,0.0,0.0
01/01/2022,05:07:57,-0.000,0.0,0.0,0.0
01/01/2022,05:08:58,0.001,0.0,0.0,0.0
01/01/2022,05:09:57,-0.000,0.0,0.0,0.0
01/01/2022,05:11:00,-0.001,0.0,0.0,0.0
01/01/2022,05:11:58,0.001,0.0,0.0,0.0
01/01/2022,05:12:58,-0.000,0.0,0.0,0.0
01/01/2022,05:13:57,0.000,0.0,0.0,0.0
01/01/2022,05:14:58,-0.000,0.0,0.0,0.0
01/01/2022,05:16:06,-0.000,0.0,0.0,0.0
01/01/2022,05:16:57,-0.000,0.0,0.0,0.0
01/01/2022,05:17:58,-0.000,0.0,0.0,0.0
01/01/2022,05:18:57,-0.000,0.0,0.0,0.0
01/01/2022,05:19:58,-0.000,0.0,0.0,0.0
01/01/2022,05:20:57,-0.000,0.0,0.0,0.0
01/01/2022,05:21:58,-0.001,0.0,0.0,0.0
01/01/2022,05:22:58,-0.000,0.0,0.0,0.0
01/01/2022,05:23:52,0.001,0.0,0.0,0.0
01/01/2022,05:24:58,-0.000,0.0,0.0,0.0
01/01/2022,05:25:58,-0.001,0.0,0.0,0.0
01/01/2022,05:26:58,-0.000,0.0,0.0,0.0
01/01/2022,05:27:58,-0.000,0.0,0.0,0.0
01/01/2022,05:29:06,-0.001,0.0,0.0,0.0
01/01/2022,05:29:56,-0.001,0.0,0.0,0.0
01/01/2022,05:30:59,0.001,0.0,0.0,0.0
01/01/2022,05:31:58,0.001,0.0,0.0,0.0
01/01/2022,05:32:58,0.000,0.0,0.0,0.0
01/01/2022,05:34:51,0.000,0.0,0.0,0.0
01/01/2022,05:35:57,0.000,0.0,0.0,0.0
01/01/2022,05:36:58,0.000,0.0,0.0,0.0
01/01/2022,05:37:58,0.000,0.0,0.0,0.0
01/01/2022,05:38:58,-0.000,0.0,0.0,0.0
01/01/2022,05:39:58,0.000,0.0,0.0,0.0
01/01/2022,05:40:57,0.001,0.0,0.0,0.0
01/01/2022,05:41:58,-0.000,0.0,0.0,0.0
01/01/2022,05:42:58,0.000,0.0,0.0,0.0
01/01/2022,05:43:58,0.001,0.0,0.0,0.0
01/01/2022,05:44:58,0.000,0.0,0.0,0.0
01/01/2022,05:45:59,0.000,0.0,0.0,0.0
01/01/2022,05:46:57,0.000,0.0,0.0,0.0
01/01/2022,05:47:58,0.000,0.0,0.0,0.0
01/01/2022,05:48:58,-0.000,0.0,0.0,0.0
01/01/2022,05:49:58,0.001,0.0,0.0,0.0
01/01/2022,05:50:58,-0.000,0.0,0.0,0.0
01/01/2022,05:51:58,0.000,0.0,0.0,0.0
01/01/2022,05:53:07,-0.000,0.0,0.0,0.0
01/01/2022,05:53:56,-0.000,0.0,0.0,0.0
01/01/2022,05:54:57,-0.000,0.0,0.0,0.0
01/01/2022,05:55:58,0.000,0.0,0.0,0.0
01/01/2022,05:56:58,0.000,0.0,0.0,0.0
01/01/2022,05:57:57,0.001,0.0,0.0,0.0
01/01/2022,05:58:58,-0.000,0.0,0.0,0.0
01/01/2022,05:59:59,0.001,0.0,0.0,0.0
01/01/2022,06:00:58,-0.001,0.0,0.0,0.0
01/01/2022,06:01:58,0.000,0.0,0.0,0.0
01/01/2022,06:02:58,0.000,0.0,0.0,0.0
01/01/2022,06:03:58,-0.000,0.0,0.0,0.0
01/01/2022,06:04:57,-0.000,0.0,0.0,0.0
01/01/2022,06:06:07,-0.000,0.0,0.0,0.0
01/01/2022,06:06:57,0.000,0.0,0.0,0.0
01/01/2022,06:07:58,0.001,0.0,0.0,0.0
01/01/2022,06:09:14,-0.001,0.0,0.0,0.0
01/01/2022,06:10:59,0.000,0.0,0.0,0.0
01/01/2022,06:12:15,0.000,0.0,0.0,0.0
01/01/2022,06:13:58,-0.000,0.0,0.0,0.0
01/01/2022,06:15:07,-0.000,0.0,0.0,0.0
01/01/2022,06:15:56,-0.000,0.0,0.0,0.0
01/01/2022,06:16:58,0.000,0.0,0.0,0.0
01/01/2022,06:17:58,0.000,0.0,0.0,0.0
01/01/2022,06:18:58,0.000,0.0,0.0,0.0
01/01/2022,06:19:58,-0.001,0.0,0.0,0.0
01/01/2022,06:20:58,0.000,0.0,0.0,0.0
01/01/2022,06:21:57,-0.000,0.0,0.0,0.0
01/01/2022,06:22:58,0.000,0.0,0.0,0.0
01/01/2022,06:23:57,0.000,0.0,0.0,0.0
01/01/2022,06:25:07,0.000,0.0,0.0,0.0
01/01/2022,06:25:56,0.000,0.0,0.0,0.0
01/01/2022,06:26:58,-0.000,0.0,0.0,0.0
01/01/2022,06:27:58,-0.000,0.0,0.0,0.0
01/01/2022,06:28:58,-0.000,0.0,0.0,0.0
01/01/2022,06:29:58,-0.000,0.0,0.0,0.0
01/01/2022,06:30:59,-0.001,0.0,0.0,0.0
01/01/2022,06:31:58,0.001,0.0,0.0,0.0
01/01/2022,06:32:57,0.000,0.0,0.0,0.0
01/01/2022,06:33:58,0.000,0.0,0.0,0.0
01/01/2022,06:34:57,0.000,0.0,0.0,0.0
01/01/2022,06:35:58,-0.001,0.0,0.0,0.0
01/01/2022,06:36:58,-0.000,0.0,0.0,0.0
01/01/2022,06:37:58,0.000,0.0,0.0,0.0
01/01/2022,06:38:58,-0.000,0.0,0.0,0.0
01/01/2022,06:39:58,0.000,0.0,0.0,0.0
01/01/2022,06:40:58,0.000,0.0,0.0,0.0
01/01/2022,06:41:58,-0.000,0.0,0.0,0.0
01/01/2022,06:43:06,-0.000,0.0,0.0,0.0
01/01/2022,06:43:58,-0.000,0.0,0.0,0.0
01/01/2022,06:44:59,-0.001,0.0,0.0,0.0
01/01/2022,06:46:06,0.000,0.0,0.0,0.0
01/01/2022,06:46:58,0.000,0.0,0.0,0.0
01/01/2022,06:47:58,0.000,0.0,0.0,0.0
01/01/2022,06:48:57,0.000,0.0,0.0,0.0
01/01/2022,06:49:57,-0.001,0.0,0.0,0.0
01/01/2022,06:50:57,0.000,0.0,0.0,0.0
01/01/2022,06:51:58,0.000,0.0,0.0,0.0
01/01/2022,06:52:58,0.000,0.0,0.0,0.0
01/01/2022,06:53:58,-0.000,0.0,0.0,0.0
01/01/2022,06:54:59,0.001,0.0,0.0,0.0
01/01/2022,06:55:58,-0.000,0.0,0.0,0.0
01/01/2022,06:56:57,-0.001,0.0,0.0,0.0
01/01/2022,06:57:58,0.000,0.0,0.0,0.0
01/01/2022,06:59:06,0.001,0.0,0.0,0.0
01/01/2022,06:59:56,0.000,0.0,0.0,0.0
01/01/2022,07:00:58,0.001,0.0,0.0,0.0
01/01/2022,07:02:06,0.000,0.0,0.0,0.0
01/01/2022,07:02:56,0.000,0.0,0.0,0.0
01/01/2022,07:03:59,0.000,0.0,0.0,0.0
01/01/2022,07:04:58,0.000,0.0,0.0,0.0
01/01/2022,07:05:58,0.001,0.0,0.0,0.0
01/01/2022,07:06:58,0.000,0.0,0.0,0.0
01/01/2022,07:07:58,-0.000,0.0,0.0,0.0
01/01/2022,07:08:59,-0.000,0.0,0.0,0.0
01/01/2022,07:09:57,-0.001,0.0,0.0,0.0
01/01/2022,07:10:58,-0.001,0.0,0.0,0.0
01/01/2022,07:12:06,0.000,0.0,0.0,0.0
01/01/2022,07:12:56,0.001,0.0,0.0,0.0
01/01/2022,07:13:58,0.000,0.0,0.0,0.0
01/01/2022,07:14:57,-0.000,0.0,0.0,0.0
01/01/2022,07:15:58,0.001,0.0,0.0,0.0
01/01/2022,07:16:58,-0.000,0.0,0.0,0.0
01/01/2022,07:18:06,0.000,0.0,0.0,0.0
01/01/2022,07:18:56,-0.000,0.0,0.0,0.0
01/01/2022,07:19:58,0.000,0.0,0.0,0.0
01/01/2022,07:20:58,-0.001,0.0,0.0,0.0
01/01/2022,07:21:58,0.000,0.0,0.0,0.0
01/01/2022,07:22:59,0.000,0.0,0.0,0.0
01/01/2022,07:23:57,0.000,0.0,0.0,0.0
01/01/2022,07:24:58,-0.001,0.0,0.0,0.0
01/01/2022,07:25:58,0.001,0.0,0.0,0.0
01/01/2022,07:26:57,-0.001,0.0,0.0,0.0
01/01/2022,07:27:59,0.000,0.0,0.0,0.0
01/01/2022,07:28:58,-0.000,0.0,0.0,0.0
01/01/2022,07:29:58,0.001,0.0,0.0,0.0
01/01/2022,07:30:58,0.000,0.0,0.0,0.0
01/01/2022,07:31:58,-0.000,0.0,0.0,0.0
01/01/2022,07:32:58,0.000,0.0,0.0,0.0
01/01/2022,07:34:08,-0.001,0.0,0.0,0.0
01/01/2022,07:34:58,0.000,0.0,0.0,0.0
01/01/2022,07:36:06,0.000,0.0,0.0,0.0
01/01/2022,07:36:58,0.001,0.0,0.0,0.0
01/01/2022,07:37:58,0.000,0.0,0.0,0.0
01/01/2022,07:38:58,0.000,0.0,0.0,0.0
01/01/2022,07:39:57,0.001,0.0,0.0,0.0
01/01/2022,07:40:58,-0.001,0.0,0.0,0.0
01/01/2022,07:41:58,0.000,0.0,0.0,0.0
01/01/2022,07:42:59,0.000,0.0,0.0,0.0
01/01/2022,07:43:58,0.000,0.0,0.0,0.0
01/01/2022,07:44:58,0.000,0.0,0.0,0.0
01/01/2022,07:46:07,0.001,0.0,0.0,0.0
01/01/2022,07:46:57,0.000,0.0,0.0,0.0
01/01/2022,07:47:58,-0.001,0.0,0.0,0.0
01/01/2022,07:48:58,0.001,0.0,0.0,0.0
01/01/2022,07:49:58,0.000,0.0,0.0,0.0
01/01/2022,07:50:58,0.001,0.0,0.0,0.0
01/01/2022,07:52:07,-0.000,0.0,0.0,0.0
01/01/2022,07:52:56,0.001,0.0,0.0,0.0
01/01/2022,07:53:58,-0.000,0.0,0.0,0.0
01/01/2022,07:55:06,0.000,0.0,0.0,0.0
01/01/2022,07:55:57,0.000,0.0,0.0,0.0
01/01/2022,07:56:58,0.002,0.0,0.0,0.0
01/01/2022,07:57:58,0.001,0.0,0.0,0.0
01/01/2022,07:58:59,0.001,0.0,0.0,0.0
01/01/2022,07:59:57,0.001,0.0,0.0,0.0
01/01/2022,08:00:58,0.001,0.0,0.0,0.0
01/01/2022,08:01:58,0.000,0.0,0.0,0.0
01/01/2022,08:03:00,0.001,0.0,0.0,0.0
01/01/2022,08:03:58,0.000,0.0,0.0,0.0
01/01/2022,08:05:08,0.001,0.0,0.0,0.0
01/01/2022,08:06:59,0.001,0.0,0.0,0.0
01/01/2022,08:08:06,0.002,0.0,0.0,0.0
01/01/2022,08:08:57,0.002,0.0,0.0,0.0
01/01/2022,08:09:58,0.002,0.0,0.0,0.0
01/01/2022,08:10:58,0.002,0.0,0.0,0.0
01/01/2022,08:11:58,0.002,0.0,0.0,0.0
01/01/2022,08:12:58,0.002,0.0,0.0,0.0
01/01/2022,08:13:58,0.002,0.0,0.0,0.0
01/01/2022,08:14:58,0.002,0.0,0.0,0.0
01/01/2022,08:15:58,0.002,0.0,0.0,0.0
01/01/2022,08:16:58,0.003,0.0,0.0,0.0
01/01/2022,08:17:57,0.003,0.0,0.0,0.0
01/01/2022,08:18:59,0.004,0.0,0.0,0.0
01/01/2022,08:19:59,0.003,0.0,0.0,0.0
01/01/2022,08:20:58,0.003,0.0,0.0,0.0
01/01/2022,08:21:58,0.004,0.0,0.0,0.0
01/01/2022,08:22:58,0.003,0.0,0.0,0.0
01/01/2022,08:23:58,0.005,0.0,0.0,0.0
01/01/2022,08:24:58,0.004,0.0,0.0,0.0
01/01/2022,08:25:58,0.005,0.0,0.0,0.0
01/01/2022,08:27:07,0.004,0.0,0.0,0.0
01/01/2022,08:27:59,0.004,0.0,0.0,0.0
01/01/2022,08:28:57,0.003,0.0,0.0,0.0
01/01/2022,08:29:58,0.005,0.0,0.0,0.0
01/01/2022,08:30:58,0.005,0.0,0.0,0.0
01/01/2022,08:31:58,0.005,0.0,0.0,0.0
01/01/2022,08:32:58,0.006,0.0,0.0,0.0
01/01/2022,08:33:58,0.007,0.0,0.0,0.0
01/01/2022,08:34:58,0.006,0.0,0.0,0.0
01/01/2022,08:35:58,0.006,0.0,0.0,0.0
01/01/2022,08:36:58,0.007,0.0,0.0,0.0
01/01/2022,08:37:58,0.008,0.0,0.0,0.0
01/01/2022,08:38:58,0.007,0.0,0.0,0.0
01/01/2022,08:39:59,0.008,0.0,0.001,0.001
01/01/2022,08:40:57,0.008,0.0,0.001,0.0
01/01/2022,08:42:06,0.008,0.0,0.001,0.0
01/01/2022,08:42:58,0.010,0.0,0.001,0.0
01/01/2022,08:43:59,0.008,0.0,0.001,0.0
01/01/2022,08:44:59,0.010,0.0,0.001,0.0
01/01/2022,08:45:59,0.010,0.0,0.001,0.0
01/01/2022,08:46:57,0.011,0.0,0.002,0.001
01/01/2022,08:47:58,0.010,0.0,0.002,0.0
01/01/2022,08:48:58,0.010,0.0,0.002,0.0
01/01/2022,08:49:58,0.010,0.0,0.002,0.0
01/01/2022,08:50:58,0.011,0.0,0.002,0.0
01/01/2022,08:51:58,0.011,0.0,0.002,0.0
01/01/2022,08:52:58,0.012,0.0,0.003,0.001
01/01/2022,08:53:59,0.012,0.0,0.003,0.0
01/01/2022,08:54:59,0.013,0.0,0.003,0.0
01/01/2022,08:55:59,0.013,0.0,0.003,0.0
01/01/2022,08:56:58,0.013,0.0,0.004,0.001
01/01/2022,08:57:58,0.013,0.0,0.004,0.0
01/01/2022,08:58:50,0.014,0.0,0.004,0.0
01/01/2022,08:59:59,0.014,0.0,0.004,0.0
01/01/2022,09:01:07,0.015,0.0,0.004,0.0
01/01/2022,09:01:57,0.015,0.0,0.005,0.001
01/01/2022,09:02:58,0.015,0.0,0.005,0.0
01/01/2022,09:04:07,0.016,0.0,0.005,0.0
01/01/2022,09:04:57,0.016,0.0,0.006,0.001
01/01/2022,09:05:58,0.017,0.0,0.006,0.0
01/01/2022,09:06:59,0.018,0.0,0.006,0.0
01/01/2022,09:07:58,0.017,0.0,0.006,0.0
01/01/2022,09:08:58,0.019,0.0,0.007,0.001
01/01/2022,09:09:58,0.019,0.0,0.007,0.0
01/01/2022,09:10:58,0.021,0.0,0.007,0.0
01/01/2022,09:11:59,0.020,0.0,0.008,0.001
01/01/2022,09:12:58,0.020,0.0,0.008,0.0
01/01/2022,09:14:06,0.022,0.0,0.008,0.0
01/01/2022,09:14:58,0.022,0.0,0.009,0.001
01/01/2022,09:15:58,0.023,0.0,0.009,-0.0
01/01/2022,09:16:59,0.023,0.0,0.009,-0.0
01/01/2022,09:17:59,0.024,0.0,0.01,0.001
01/01/2022,09:18:58,0.025,0.0,0.01,0.0
01/01/2022,09:20:06,0.025,0.0,0.011,0.001
01/01/2022,09:20:58,0.026,0.0,0.011,-0.0
01/01/2022,09:21:59,0.026,0.0,0.012,0.001
01/01/2022,09:22:58,0.027,0.0,0.012,0.0
01/01/2022,09:23:59,0.027,0.0,0.012,0.0
01/01/2022,09:24:58,0.029,0.0,0.013,0.001
01/01/2022,09:26:07,0.028,0.0,0.013,-0.0
01/01/2022,09:26:58,0.029,0.0,0.014,0.001
01/01/2022,09:27:59,0.030,0.0,0.014,0.0
01/01/2022,09:29:06,0.030,0.0,0.015,0.001
01/01/2022,09:29:58,0.032,0.0,0.015,0.0
01/01/2022,09:30:59,0.032,0.0,0.016,0.001
01/01/2022,09:31:58,0.032,0.0,0.016,0.0
01/01/2022,09:32:58,0.033,0.0,0.017,0.001
01/01/2022,09:33:59,0.034,0.0,0.018,0.001
01/01/2022,09:34:58,0.034,0.0,0.018,-0.0
01/01/2022,09:35:58,0.035,0.0,0.019,0.001
01/01/2022,09:36:58,0.036,0.0,0.019,0.0
01/01/2022,09:37:59,0.036,0.0,0.02,0.001
01/01/2022,09:38:59,0.036,0.0,0.02,0.0
01/01/2022,09:39:59,0.036,0.0,0.021,0.001
01/01/2022,09:40:58,0.037,0.0,0.022,0.001
01/01/2022,09:42:07,0.036,0.0,0.022,-0.0
01/01/2022,09:42:57,0.038,0.0,0.023,0.001
01/01/2022,09:44:07,0.038,0.0,0.024,0.001
01/01/2022,09:45:07,0.038,0.0,0.024,0.0
01/01/2022,09:45:59,0.039,0.0,0.025,0.001
01/01/2022,09:46:58,0.040,0.0,0.025,0.0
01/01/2022,09:47:59,0.041,0.0,0.026,0.001
01/01/2022,09:48:58,0.042,0.0,0.027,0.001
01/01/2022,09:49:58,0.044,0.0,0.028,0.001
01/01/2022,09:50:59,0.045,0.0,0.028,0.0
01/01/2022,09:51:58,0.045,0.0,0.029,0.001
01/01/2022,09:52:58,0.047,0.0,0.03,0.001
01/01/2022,09:53:59,0.046,0.0,0.031,0.001
01/01/2022,09:54:58,0.047,0.0,0.031,0.0
01/01/2022,09:55:58,0.047,0.0,0.032,0.001
01/01/2022,09:56:58,0.050,0.0,0.033,0.001
01/01/2022,09:57:59,0.051,0.0,0.034,0.001
01/01/2022,09:58:58,0.051,0.0,0.035,0.001
01/01/2022,09:59:58,0.051,0.0,0.035,0.0
01/01/2022,10:00:59,0.052,0.0,0.036,0.001
01/01/2022,10:01:58,0.051,0.0,0.037,0.001
01/01/2022,10:02:58,0.053,0.0,0.038,0.001
01/01/2022,10:03:58,0.052,0.0,0.039,0.001
01/01/2022,10:04:59,0.051,0.0,0.04,0.001
01/01/2022,10:06:06,0.051,0.0,0.041,0.001
01/01/2022,10:06:52,0.050,0.0,0.041,0.0
01/01/2022,10:07:59,0.049,0.0,0.042,0.001
01/01/2022,10:08:58,0.050,0.0,0.043,0.001
01/01/2022,10:09:58,0.049,0.0,0.044,0.001
01/01/2022,10:10:58,0.049,0.0,0.045,0.001
01/01/2022,10:11:58,0.050,0.0,0.046,0.001
01/01/2022,10:12:59,0.050,0.0,0.046,0.0
01/01/2022,10:13:57,0.052,0.0,0.047,0.001
01/01/2022,10:14:58,0.053,0.0,0.048,0.001
01/01/2022,10:15:59,0.054,0.0,0.049,0.001
01/01/2022,10:16:58,0.057,0.0,0.05,0.001
01/01/2022,10:17:58,0.059,0.0,0.051,0.001
01/01/2022,10:18:59,0.061,0.0,0.052,0.001
01/01/2022,10:19:59,0.062,0.0,0.053,0.001
01/01/2022,10:20:59,0.063,0.0,0.054,0.001
01/01/2022,10:21:59,0.065,0.0,0.055,0.001
01/01/2022,10:22:45,0.066,0.0,0.056,0.001
01/01/2022,10:23:59,0.068,0.0,0.057,0.001
01/01/2022,10:24:58,0.070,0.0,0.059,0.002
01/01/2022,10:25:59,0.071,0.0,0.06,0.001
01/01/2022,10:26:58,0.073,0.0,0.061,0.001
01/01/2022,10:28:06,0.075,0.0,0.062,0.001
01/01/2022,10:28:57,0.076,0.0,0.063,0.001
01/01/2022,10:29:59,0.077,0.0,0.065,0.002